Location: Isles
(48.9125°N, 2.8272°E)
Time: 16:41:18
(UTC+00:00)

Cosmos 1943 Rocket - Visible Passes

Search period start: 30 September 2023 00:00
Search period end: 10 October 2023 00:00
Orbit: 810 x 845 km, 71.0° (Epoch: 30 September)

Date Brightness Start Highest point End Pass type
(mag) Time Alt. Az. Time Alt. Az. Time Alt. Az.
30 Sep 2.9 18:40:46 10° NNW 18:46:02 37° NE 18:49:24 20° ESE visible
30 Sep 3.0 20:24:31 10° NW 20:29:53 44° WSW 20:30:55 40° SW visible
01 Oct 3.0 18:21:27 10° NNW 18:26:37 34° NE 18:30:51 14° ESE visible
01 Oct 2.9 20:05:07 10° NW 20:10:35 50° WSW 20:12:23 37° SSW visible
02 Oct 3.1 18:02:09 10° NNW 18:07:11 31° NE 18:12:09 10° ESE visible
02 Oct 2.7 19:45:43 10° NW 19:51:15 57° WSW 19:53:56 30° S visible
03 Oct 2.5 19:26:20 10° NNW 19:31:56 64° WSW 19:35:34 22° S visible
03 Oct 4.9 21:14:20 10° W 21:14:31 10° W 21:14:41 10° W visible
04 Oct 2.4 19:06:57 10° NNW 19:12:37 72° WSW 19:17:22 15° SSE visible
04 Oct 4.8 20:53:23 10° WNW 20:55:17 12° W 20:57:11 10° WSW visible
05 Oct 2.3 18:47:35 10° NNW 18:53:16 80° WSW 18:58:53 10° SSE visible
05 Oct 4.8 20:33:24 10° WNW 20:36:04 14° W 20:38:42 10° SW visible
06 Oct 2.2 18:28:14 10° NNW 18:33:56 89° WSW 18:39:34 10° SSE visible
06 Oct 4.8 20:13:38 10° WNW 20:16:49 16° W 20:20:00 10° SW visible
07 Oct 2.2 18:08:52 10° NNW 18:14:34 83° ENE 18:20:12 10° SSE visible
07 Oct 4.7 19:53:57 10° WNW 19:57:34 18° W 20:01:11 10° SW visible
08 Oct 2.2 17:49:31 10° NNW 17:55:13 74° ENE 18:00:49 10° SE visible
08 Oct 4.6 19:34:20 10° NW 19:38:19 20° W 19:42:17 10° SW visible
09 Oct 4.5 19:14:46 10° NW 19:19:03 23° W 19:23:19 10° SSW visible
